Starlink 3318

operational
NORAD ID: 50837 Int'l Des: 2022-001 Owner: SPXS Country: US Constellation: starlink
LEOCIRCULAR

关于 Starlink 3318

正在加载描述...

实时位置

正在加载3D地球...

即将过境

高度历史

Altitude vs Time

uPlot chart will show altitude changes over time

两行轨道根数

1 50837U 22001AL 25306.48497095 .00001814 00000-0 13198-3 0 9999
2 50837 53.2181 20.1646 0001402 95.0887 265.0265 15.08855051211208
Epoch: Nov 2, 2025 • Age: 26 hours

当前状态

高度 539.5 km
速度 7.59 km/s
星下点 10.03°N, 62.57°W
发射日期 Jan 6, 2022
运行时间 3.8 years
类型 internet

技术详情

分类 Payload
质量 297.00 kg
干质量 275.00 kg
总质量 297.00 kg
长度 0.20 m
直径 2.80 m
跨度 9.00 m
形状 Box + pan
制造商 SPXS
平台类型 Starlink
阶段状态 In Orbit
所有者/国家 SPXS/US

大型星座

Loading constellations...